Location: Newark
(9.4667°S, 159.8167°E)
Time: 02:53:06
(UTC+00:00)

Vanguard 1 - Pass Details

Date: 20 November 2019
Orbit: 652 x 3831 km, 34.2° (Epoch: 05 December)

Event Time Altitude Azimuth Distance (km) Brightness Sun altitude
Rises 13:32:49 0° 242° (WSW) 5,911 14.2 -60.1°
Reaches altitude 10° 13:37:02 10° 231° (SW) 5,338 13.9 -59.9°
Maximum altitude 13:52:00 32° 173° (S) 4,876 13.6 -58.7°
Drops below altitude 10° 14:11:37 10° 116° (ESE) 6,931 14.6 -56.7°
Sets 14:18:15 0° 106° (ESE) 7,836 15.0 -55.9°
